Location: Fontevrault
(47.1823°N, 0.0493°E)
Time: 14:03:06
(UTC+00:00)

CARTOSAT-1 - Pass Details

Date: 16 June 2021
Orbit: 616 x 618 km, 97.8° (Epoch: 29 July)

Event Time Altitude Azimuth Distance (km) Brightness Sun altitude
Exits shadow 21:10:53 11° 161° (SSE) 1,881 5.4 -9.7°
Maximum altitude 21:14:57 79° 76° (ENE) 636 3.6 -10.2°
Drops below altitude 10° 21:19:18 10° 349° (N) 1,995 7.3 -10.6°
Sets 21:21:30 0° 348° (NNW) 2,906 8.3 -10.9°
